[Iaude] MPEC F98: 2016 CN323 [a=97.65,e=0.65,i=13.1,H=7.1]

mpec at mpcdb1.cfa.harvard.edu mpec at mpcdb1.cfa.harvard.edu
Tue Mar 26 21:45:17 EDT 2019


M.P.E.C. 2019-F98                                Issued 2019 Mar. 27, 01:42 UT
 
     The Minor Planet Electronic Circulars contain information on unusual
         minor planets and routine data on comets.  They are published
    on behalf of Division F of the International Astronomical Union by the
          Minor Planet Center, Smithsonian Astrophysical Observatory,
                          Cambridge, MA 02138, U.S.A.

             Prepared using the Tamkin Foundation Computer Network

                              MPC at CFA.HARVARD.EDU
            URL https://www.minorplanetcenter.net/    ISSN 1523-6714


                                  2016 CN323
 
Observations:
     K16CW3N*5C2016 02 05.24716 07 45 49.625+21 21 47.64         24.9 rVEF098568
     K16CW3N 5C2016 02 05.43125 07 45 48.950+21 21 49.15         24.4 rVEF098568
     K16CW3N 5C2016 02 05.52552 07 45 48.599+21 21 49.62         24.7 rVEF098568
     K16CW3N  C2016 03 10.03111 07 44 12.189+21 24 46.74               cEF098304
     K16CW3N  C2016 03 10.03762 07 44 12.170+21 24 46.88               cEF098304
     K16CW3N  C2016 03 10.08340 07 44 12.083+21 24 46.89               cEF098304
     K16CW3N  C2016 03 10.12798 07 44 11.980+21 24 46.98               cEF098304
     K16CW3N  C2016 12 30.29465 07 51 17.474+20 57 40.67               VEF098G37
     K16CW3N  C2016 12 30.35908 07 51 17.251+20 57 41.14               VEF098G37
     K16CW3N  C2017 04 21.99157 07 46 56.036+21 05 35.72               cEF098304
     K16CW3N  C2017 04 23.00868 07 46 57.013+21 05 31.24               cEF098304
     K16CW3N  C2018 03 07.13863 07 50 38.762+20 46 01.33               VEF098G37
     K16CW3N  C2018 03 07.14613 07 50 38.717+20 46 01.49               VEF098G37
     K16CW3N  C2018 03 07.15350 07 50 38.724+20 46 01.76               VEF098G37
     K16CW3N  C2018 03 07.22473 07 50 38.563+20 46 02.04               VEF098G37
     K16CW3N  C2018 03 07.23215 07 50 38.523+20 46 02.13               VEF098G37
     K16CW3N  C2018 03 07.23942 07 50 38.514+20 46 02.04               VEF098G37
     K16CW3N  C2018 03 11.08413 07 50 30.117+20 46 17.88         24.5 rcEF098304
     K16CW3N  C2018 03 11.14519 07 50 29.999+20 46 18.46               cEF098304
     K16CW3N  C2018 05 14.16034 07 50 41.365+20 44 05.36               VEF098G37
     K16CW3N  C2018 05 14.16819 07 50 41.375+20 44 05.08               VEF098G37
     K16CW3N  C2018 05 14.17567 07 50 41.401+20 44 05.04               VEF098G37
     K16CW3N  C2018 05 15.15943 07 50 43.792+20 43 57.16               VEF098G37
     K16CW3N  C2018 05 15.16725 07 50 43.811+20 43 57.63               VEF098G37
     K16CW3N  C2018 05 15.17457 07 50 43.834+20 43 57.23               VEF098G37
 
Observer details:
304 Las Campanas Observatory.  Observers S. S. Sheppard, C. A. Trujillo.
    6.5-m Magellan-Baade telescope + CCD.
568 Mauna Kea.  Observers D. J. Tholen, S. S. Sheppard, C. A. Trujillo.
    8.2-m reflector + CCD.
G37 Lowell Observatory-Discovery Channel Telescope.  Observer
    C. A. Trujillo.  4-m Discovery Channel Telescope + CCD.
 
Orbital elements:
2016 CN323
Epoch 2019 Apr. 27.0 TT = JDT 2458600.5                 MPC
M 338.33229              (2000.0)            P               Q
n   0.00102141     Peri.  272.14881     -0.86237306     +0.46298386
a  97.6490889      Node   295.48810     -0.32509553     -0.81657257
e   0.6450865      Incl.   13.11601     -0.38810514     -0.34475379
P 965              H    7.1           G   0.15           U   4
Residuals in seconds of arc
160205 568  0.1+  0.1-    170421 304  0.4+  0.2+    180311 304  0.2+  0.3+
160205 568  0.0   0.1+    170423 304  0.1-  0.1+    180514 G37  0.3+  0.1-
160205 568  0.1-  0.1-    180307 G37  0.1-  0.3-    180514 G37  0.1+  0.3-
160310 304  0.0   0.1-    180307 G37  0.5-  0.1-    180514 G37  0.2+  0.2-
160310 304  0.1-  0.0     180307 G37  0.1-  0.1+    180515 G37  0.0   0.2-
160310 304  0.0   0.2-    180307 G37  0.0   0.1+    180515 G37  0.0   0.3+
160310 304  0.1-  0.2-    180307 G37  0.3-  0.1+    180515 G37  0.1+  0.0
161230 G37  0.0   0.3+    180307 G37  0.2-  0.0
161230 G37  0.3+  0.3+    180311 304  0.0   0.1-

Ephemeris:
2016 CN323               a,e,i = 97.65, 0.65, 13                 q = 34.657
Date    TT    R. A. (2000) Decl.     Delta      r     Elong.  Phase     V
2019 02 25    07 54 19.8 +20 24 53  56.4512 57.2217   140.8     0.6    24.8
...
2019 03 12    07 53 41.9 +20 26 13  56.6153 57.1997   125.6     0.8    24.8
...
2019 03 20    07 53 27.3 +20 26 40  56.7198 57.1879   117.6     0.9    24.8
...
2019 03 26    07 53 19.2 +20 26 53  56.8042 57.1791   111.6     0.9    24.8
2019 03 27    07 53 18.1 +20 26 55  56.8186 57.1776   110.6     0.9    24.8
2019 03 28    07 53 17.0 +20 26 56  56.8332 57.1762   109.6     0.9    24.8
...
2019 04 03    07 53 12.3 +20 27 00  56.9226 57.1674   103.7     1.0    24.8
...
2019 04 11    07 53 10.2 +20 26 55  57.0456 57.1556    95.8     1.0    24.8
...
2019 04 26    07 53 18.8 +20 26 10  57.2792 57.1336    81.2     1.0    24.8

A. U. Tomatic                (C) Copyright 2019 MPC           M.P.E.C. 2019-F98



More information about the Iaude mailing list